Hallock, MN

6:54 AM CST on January 23, 2018 (GMT -0600)
Hallock Municipal

Weather History for KHCO - July, 2013

Change the Weather History Date:

Friday, July 5, 2013

  Actual Average Record
Temperature  
Mean Temperature 74 °F -  
Max Temperature 84 °F 78 °F 96 °F (1936)
Min Temperature 64 °F 56 °F 37 °F (1983)
Cooling Degree Days 9    
Growing Degree Days 24 (Base 50)    
Moisture  
Dew Point 64 °F    
Average Humidity 72    
Maximum Humidity 100    
Minimum Humidity 45    
Precipitation  
Precipitation 0.00 in - - ()
Sea Level Pressure  
Sea Level Pressure 29.71 in    
Wind  
Wind Speed 6 mph (NNW)    
Max Wind Speed 14 mph    
Max Gust Speed 20 mph    
Visibility 10 miles    
Events      
Averages and records for this station are not official NWS values.
T = Trace of Precipitation, MM = Missing Value Source: NWS Daily Summary

Daily Weather History Graph

Daily Weather History Graph

Search for Another Location

Airport or City:

Trip Planner

Search our weather history database for the weather conditions in past years. The results will help you decide how hot, cold, wet, or windy it might be!

Date:

Astronomy

Jul. 05, 2013 Rise Set
Actual Time 5:31 AM CDT 9:32 PM CDT
Civil Twilight 4:50 AM CDT 10:14 PM CDT
Nautical Twilight 3:51 AM CDT 11:12 PM CDT
Astronomical Twilight 2:09 AM CDT 12:51 AM CDT
Moon 3:37 AM CDT (7/5) 7:23 PM CDT (7/5)
Length of Visible Light 17h 23m
Length of Day
16h 00m
Waning Crescent, 6% of the Moon is Illuminated
Jul 5
Waning Crescent
Jul 8
New
Jul 15
First Quarter
Jul 22
Full
Jul 29
Last Quarter

Hourly Weather History & Observations

Time (CDT) Temp. Heat Index Dew Point Humidity Pressure Visibility Wind Dir Wind Speed Gust Speed Precip Events Conditions
12:13 AM 69.8 °F - 64.4 °F 83% 29.66 in 10.0 mi SSE 4.6 mph - N/A   Clear
12:33 AM 68.0 °F - 64.4 °F 88% 29.66 in 10.0 mi South 3.5 mph - N/A   Clear
12:53 AM 66.2 °F - 64.4 °F 94% 29.67 in 10.0 mi Calm Calm - N/A   Clear
1:13 AM 68.0 °F - 64.4 °F 88% 29.67 in 10.0 mi Calm Calm - N/A   Clear
1:33 AM 66.2 °F - 64.4 °F 94% 29.67 in 10.0 mi Calm Calm - N/A   Clear
1:53 AM 69.8 °F - 66.2 °F 88% 29.68 in 10.0 mi NW 3.5 mph - N/A   Clear
2:13 AM 69.8 °F - 66.2 °F 88% 29.68 in 10.0 mi WNW 3.5 mph - N/A   Scattered Clouds
2:33 AM 69.8 °F - 66.2 °F 88% 29.68 in 10.0 mi NW 4.6 mph - N/A   Mostly Cloudy
2:53 AM 69.8 °F - 66.2 °F 88% 29.68 in 10.0 mi NW 4.6 mph - N/A   Mostly Cloudy
3:13 AM 68.0 °F - 66.2 °F 94% 29.68 in 10.0 mi Calm Calm - N/A   Scattered Clouds
3:33 AM 68.0 °F - 66.2 °F 94% 29.68 in 10.0 mi NNW 4.6 mph - N/A   Scattered Clouds
3:53 AM 66.2 °F - 64.4 °F 94% 29.68 in 10.0 mi Calm Calm - N/A   Clear
4:14 AM 66.2 °F - 64.4 °F 94% 29.69 in 10.0 mi NW 5.8 mph - N/A   Scattered Clouds
4:33 AM 66.2 °F - 64.4 °F 94% 29.68 in 10.0 mi NW 4.6 mph - N/A   Mostly Cloudy
4:53 AM 66.2 °F - 64.4 °F 94% 29.68 in 10.0 mi NW 3.5 mph - N/A   Mostly Cloudy
5:14 AM 64.4 °F - 64.4 °F 100% 29.68 in 10.0 mi WNW 5.8 mph - N/A   Scattered Clouds
5:33 AM 64.4 °F - 64.4 °F 100% 29.68 in 10.0 mi NW 5.8 mph - N/A   Clear
5:53 AM 64.4 °F - 62.6 °F 94% 29.68 in 10.0 mi NNW 3.5 mph - N/A   Clear
6:13 AM 64.4 °F - 62.6 °F 94% 29.68 in 10.0 mi NW 5.8 mph - N/A   Clear
6:33 AM 64.4 °F - 64.4 °F 100% 29.69 in 10.0 mi WNW 3.5 mph - N/A   Clear
6:53 AM 66.2 °F - 64.4 °F 94% 29.69 in 10.0 mi NW 3.5 mph - N/A   Clear
7:13 AM 69.8 °F - 66.2 °F 88% 29.68 in 10.0 mi NW 8.1 mph - N/A   Mostly Cloudy
7:33 AM 69.8 °F - 66.2 °F 88% 29.69 in 10.0 mi NNW 6.9 mph - N/A   Mostly Cloudy
7:53 AM 69.8 °F - 66.2 °F 88% 29.70 in 10.0 mi NNW 8.1 mph - N/A   Mostly Cloudy
8:13 AM 69.8 °F - 66.2 °F 88% 29.70 in 10.0 mi NNW 10.4 mph - N/A   Mostly Cloudy
8:33 AM 71.6 °F - 66.2 °F 83% 29.70 in 10.0 mi NNW 9.2 mph - N/A   Mostly Cloudy
8:53 AM 71.6 °F - 68.0 °F 88% 29.70 in 10.0 mi NNW 9.2 mph - N/A   Mostly Cloudy
9:13 AM 73.4 °F - 68.0 °F 83% 29.70 in 10.0 mi NNW 9.2 mph - N/A   Scattered Clouds
9:33 AM 73.4 °F - 68.0 °F 83% 29.71 in 10.0 mi NW 8.1 mph - N/A   Clear
9:53 AM 75.2 °F - 68.0 °F 78% 29.72 in 10.0 mi NW 9.2 mph - N/A   Scattered Clouds
10:13 AM 75.2 °F - 68.0 °F 78% 29.71 in 10.0 mi NW 10.4 mph - N/A   Clear
10:34 AM 77.0 °F - 68.0 °F 74% 29.71 in 10.0 mi NW 12.7 mph - N/A   Clear
10:53 AM 77.0 °F - 68.0 °F 74% 29.72 in 10.0 mi NW 8.1 mph - N/A   Clear
11:13 AM 78.8 °F - 68.0 °F 69% 29.71 in 10.0 mi NW 12.7 mph - N/A   Clear
11:33 AM 80.6 °F 83.2 °F 68.0 °F 65% 29.72 in 10.0 mi NW 12.7 mph - N/A   Clear
11:53 AM 80.6 °F 82.7 °F 66.2 °F 61% 29.72 in 10.0 mi NNW 12.7 mph 19.6 mph N/A   Clear
12:13 PM 80.6 °F 82.7 °F 66.2 °F 61% 29.72 in 10.0 mi NNW 10.4 mph 17.3 mph N/A   Clear
12:33 PM 82.4 °F 83.9 °F 64.4 °F 54% 29.72 in 10.0 mi NNW 13.8 mph - N/A   Clear
12:53 PM 82.4 °F 83.9 °F 64.4 °F 54% 29.72 in 10.0 mi North 12.7 mph 16.1 mph N/A   Clear
1:13 PM 82.4 °F 83.9 °F 64.4 °F 54% 29.72 in 10.0 mi NNW 11.5 mph - N/A   Clear
1:33 PM 82.4 °F 83.9 °F 64.4 °F 54% 29.72 in 10.0 mi NNW 11.5 mph 18.4 mph N/A   Clear
1:53 PM 82.4 °F 83.4 °F 62.6 °F 51% 29.72 in 10.0 mi North 11.5 mph - N/A   Clear
2:13 PM 82.4 °F 82.9 °F 60.8 °F 48% 29.71 in 10.0 mi NNE 9.2 mph - N/A   Clear
2:33 PM 82.4 °F 83.4 °F 62.6 °F 51% 29.71 in 10.0 mi North 11.5 mph 16.1 mph N/A   Clear
2:53 PM 84.2 °F 85.0 °F 62.6 °F 48% 29.72 in 10.0 mi North 9.2 mph 16.1 mph N/A   Clear
3:13 PM 84.2 °F 85.0 °F 62.6 °F 48% 29.72 in 10.0 mi NNW 9.2 mph - N/A   Clear
3:33 PM 84.2 °F 85.6 °F 64.4 °F 51% 29.72 in 10.0 mi NW 10.4 mph - N/A   Clear
3:53 PM 84.2 °F 85.0 °F 62.6 °F 48% 29.72 in 10.0 mi NNW 8.1 mph - N/A   Clear
4:13 PM 82.4 °F 83.4 °F 62.6 °F 51% 29.72 in 10.0 mi NNW 6.9 mph - N/A   Clear
4:33 PM 82.4 °F 83.4 °F 62.6 °F 51% 29.72 in 10.0 mi NNW 9.2 mph - N/A   Clear
4:53 PM 82.4 °F 83.4 °F 62.6 °F 51% 29.73 in 10.0 mi NW 8.1 mph - N/A   Clear
5:13 PM 84.2 °F 85.0 °F 62.6 °F 48% 29.72 in 10.0 mi NNW 11.5 mph 17.3 mph N/A   Clear
5:33 PM 82.4 °F 82.9 °F 60.8 °F 48% 29.73 in 10.0 mi NNW 12.7 mph 17.3 mph N/A   Clear
5:53 PM 82.4 °F 82.9 °F 60.8 °F 48% 29.73 in 10.0 mi NNW 6.9 mph - N/A   Clear
6:13 PM 82.4 °F 82.9 °F 60.8 °F 48% 29.73 in 10.0 mi NNW 8.1 mph - N/A   Clear
6:33 PM 82.4 °F 82.9 °F 60.8 °F 48% 29.73 in 10.0 mi NNW 6.9 mph - N/A   Clear
6:53 PM 80.6 °F 80.8 °F 57.2 °F 45% 29.73 in 10.0 mi North 10.4 mph - N/A   Clear
7:13 PM 80.6 °F 81.1 °F 59.0 °F 48% 29.73 in 10.0 mi NNW 6.9 mph - N/A   Clear
7:33 PM 80.6 °F 80.8 °F 57.2 °F 45% 29.74 in 10.0 mi NNW 8.1 mph - N/A   Clear
7:53 PM 78.8 °F - 59.0 °F 51% 29.74 in 10.0 mi North 6.9 mph - N/A   Clear
8:13 PM 77.0 °F - 60.8 °F 57% 29.74 in 7.0 mi North 4.6 mph - N/A   Clear
8:33 PM 75.2 °F - 60.8 °F 61% 29.74 in 10.0 mi North 4.6 mph - N/A   Clear
8:53 PM 73.4 °F - 60.8 °F 65% 29.74 in 7.0 mi North 4.6 mph - N/A   Clear
9:13 PM 71.6 °F - 60.8 °F 69% 29.74 in 7.0 mi Calm Calm - N/A   Clear
9:33 PM 69.8 °F - 60.8 °F 73% 29.74 in 5.0 mi Calm Calm - N/A   Haze
9:53 PM 69.8 °F - 60.8 °F 73% 29.75 in 5.0 mi Calm Calm - N/A   Haze
10:13 PM 69.8 °F - 60.8 °F 73% 29.76 in 5.0 mi North 3.5 mph - N/A   Haze
10:34 PM 68.0 °F - 60.8 °F 78% 29.76 in 7.0 mi NNE 3.5 mph - N/A   Clear
10:53 PM 66.2 °F - 60.8 °F 83% 29.76 in 7.0 mi NNE 4.6 mph - N/A   Clear
11:13 PM 68.0 °F - 60.8 °F 78% 29.76 in 7.0 mi NE 3.5 mph - N/A   Clear
11:34 PM 68.0 °F - 60.8 °F 78% 29.77 in 7.0 mi Calm Calm - N/A   Clear
11:53 PM 68.0 °F - 60.8 °F 78% 29.77 in 7.0 mi Calm Calm - N/A   Clear